Regional Weather Roundup
Issued by NWS Upton, NY

Current Version | Previous Version | Graphics & Text | Print | Product List | Glossary Off
Versions: 1 2 3 4 5 6 7 8 9 10 11 12 13 14 15 16 17 18 19 20 21 22 23 24 25 26 27 28 29 30 31 32 33 34 35 36 37 38 39 40 41 42 43 44 45 46 47 48 49
000 ASUS41 KOKX 130504 RWROKX REGIONAL WEATHER ROUNDUP NATIONAL WEATHER SERVICE NEW YORK NY 1200 AM EST SAT FEB 13 2016 NOTE: "FAIR" INDICATES FEW OR NO CLOUDS BELOW 12,000 FEET WITH NO SIGNIFICANT WEATHER AND/OR OBSTRUCTIONS TO VISIBILITY. NYZ071-072-176-178-NJZ106-104-130600- NEW YORK CITY METRO AREA CITY SKY/WX TMP DP RH WIND PRES REMARKS CENTRAL PARK CLOUDY 23 7 50 CALM 29.94F LAGUARDIA APRT CLOUDY 24 8 50 W16 29.93F WCI 11 KENNEDY INTL CLOUDY 24 8 50 W16 29.95F WCI 11 NEWARK/LIBERTY CLOUDY 22 9 57 W10 29.94F WCI 11 BRNX BOT. GARD N/A 23 9 54 SW8 29.92F WCI 14 TETERBORO CLOUDY 22 6 50 W7 29.93F WCI 13 $$ NYZ177-179-078>081-130600- LONG ISLAND NEW YORK CITY SKY/WX TMP DP RH WIND PRES REMARKS FARMINGDALE CLOUDY 23 8 52 W9 29.93F WCI 13 ISLIP CLOUDY 21 12 68 W8 29.91F WCI 11 SHIRLEY CLOUDY 21 12 68 W5 29.92F WCI 15 RIVERHEAD N/A 23 10 58 NW3 29.89F WESTHAMPTON CLOUDY 19 13 77 W3 29.92F EAST HAMPTON CLOUDY 21 17 86 W3 29.91S MONTAUK POINT N/A 24 16 71 W9 29.90F WCI 14 $$ NYZ052-065-067-130600- HUDSON VALLEY CITY SKY/WX TMP DP RH WIND PRES REMARKS WHITE PLAINS CLEAR 20 5 52 W9 29.88F WCI 9 NEWBURGH CLOUDY 18 12 79 W12 29.89F WCI 5 MONTGOMERY CLOUDY 19 11 70 SW10 29.88F WCI 7 POUGHKEEPSIE CLOUDY 22 8 55 SW7 29.90F WCI 13 ALBANY CLOUDY 20 4 50 S7 29.86F WCI 11 $$ NJZ001-105-106-008-010-013-015-019>022-104-130600- NEW JERSEY CITY SKY/WX TMP DP RH WIND PRES REMARKS NEWARK/LIBERTY CLOUDY 22 9 57 W10 29.94F WCI 11 TETERBORO CLOUDY 22 6 50 W7 29.93F WCI 13 CALDWELL CLOUDY 21 7 54 VRB6 29.93F WCI 13 MORRISTOWN CLOUDY 21 7 53 W3 29.94F SOMERVILLE CLOUDY 20 11 68 CALM 29.93F SUSSEX LGT SNOW 18 12 77 SW6 29.89F WCI 10 ANDOVER N/A 18 13 80 SW3 29.90F TRENTON CLOUDY 21 14 74 W5 29.95S HAZE WCI 15 MILLVILLE CLOUDY 19 17 92 CALM 29.98S ATLANTIC CITY MOCLDY 21 18 88 W5 29.97F WCI 15 WRIGHTSTOWN CLOUDY 20 20 99 W6 29.93F WCI 12 TOMS RIVER CLOUDY 19 14 79 W5 29.96F WCI 13 BELMAR CLOUDY 19 9 63 W6 29.93F WCI 11 $$ PAZ047>061-062-071-130600- EASTERN PENNSYLVANIA CITY SKY/WX TMP DP RH WIND PRES REMARKS PHILADELPHIA CLOUDY 24 15 68 W10 29.98F WCI 14 ALLENTOWN CLOUDY 20 14 77 W8 29.92F WCI 10 SCRANTON LGT SNOW 18 12 77 SW7 29.85F WCI 9 $$ CTZ002-004>006-009-010-012-RIZ004-006-007-MAZ004-011-015-130600- SOUTHERN NEW ENGLAND IN CT CITY SKY/WX TMP DP RH WIND PRES REMARKS BRADLEY INTL CLOUDY 17 8 67 SW5 29.88F WCI 10 HARTFORD PTCLDY 21 11 65 CALM 29.91F DANBURY MOCLDY 18 4 54 W7 29.89F WCI 9 WTRBRY/OXFORD MOCLDY 16 3 57 CALM 29.86F BRIDGEPORT CLOUDY 23 7 50 W8 29.92F WCI 14 MERIDEN PTCLDY 18 10 71 CALM 29.91S NEW HAVEN MOCLDY 22 9 57 W6 29.91F WCI 14 CHESTER FAIR 19 18 93 CALM 29.88F GROTON LGT SNOW 20 19 96 NW7 29.90F FOG WCI 11 WILLIMANTIC CLOUDY 20 11 68 CALM 29.90F IN RI CITY SKY/WX TMP DP RH WIND PRES REMARKS PROVIDENCE CLOUDY 21 9 59 W6 29.91F WCI 13 BLOCK ISLAND CLOUDY 21 19 93 N6 29.87F WCI 14 WESTERLY CLOUDY 21 12 68 NW5 29.90F WCI 15 IN MA CITY SKY/WX TMP DP RH WIND PRES REMARKS BOSTON CLOUDY 21 9 59 SW9 29.91F WCI 11 WORCESTER PTCLDY 11 5 77 SW7 29.82F WCI 0 WESTFIELD MOCLDY 9 3 77 CALM 29.88F PROVINCETOWN FLURRIES 22 16 78 W7 29.92F WCI 13 NANTUCKET LGT SNOW 24 21 88 N5 29.90F VSB 1 WCI 18 $$ ANZ330-335-338-340-345-350-353-355-130600- COASTAL MARINE OBSERVATIONS STATION/POSITION TIME SKY/WX TEMP WIND PRES VSBY WAVE AIR SEA DIR/SP/G HT/PER (UTC) (F) (DEG/KT/KT) (MB) (MI) (FT/S) NY HARB ENTRANCE 0350 24 42 270/ 16/ 21 1013.8 2/ 3 4S FIRE IS NOT AVBL 20S FIRE ISLAND 0350 24 40 290/ 17/ 21 1013.5 3/ 4 GREAT SOUTH BAY NOT AVBL 23SW MTP 0450 25 45 300/ 17/ 21 1012.0 2/ 4 HUDSON CANYON 0350 28 48 1013.1 3/ 4 KINGS POINT 0400 23 36 320/ 14/ 17 1013.4 EXECUTION ROCKS NOT AVBL CENTRAL LI SOUND 0415 25 290/ 12/ 16 N/A 1/ 3 EASTERN LI SOUND 0400 24 40 330/ 8/ 10 N/A ROBBINS REEF 0400 22 280/ 12/ 15 1013.4 $$ >>>>>>>>>>>>>>>>>>>>>>>>>>>> KEY <<<<<<<<<<<<<<<<<<<<<<<<<<< > < > SKY/WX - SKY CONDITION/PRESENT WEATHER < > TMP - TEMPERATURE IN FAHRENHEIT < > DP - DEWPOINT IN FAHRENHEIT < > RH - RELATIVE HUMIDITY IN PERCENT < > WIND - DIRECTION AND SPEED IN MPH < > PRES - MEAN SEA LEVEL PRESSURE IN INCHES OF HG < > WCI - WIND CHILL INDEX < > VSB - VISIBILITY IN MILES < > HX - HEAT INDEX < > TC - TEMPERATURE IN CELSIUS < > VRB - VARIABLE WIND DIRECTION < > < >>>>>>>>>>>>>>>>>>>>>>>>>>>> KEY <<<<<<<<<<<<<<<<<<<<<<<<<<<

USA.gov is the U.S. government's official web portal to all federal, state and local government web resources and services.